NORTHERN QUEENS  -  Heat Advisory Heat Advisory     Air Quality Alert Air Quality Alert        SOUTHERN QUEENS  -  Heat Advisory Heat Advisory     Air Quality Alert Air Quality Alert      

Active alerts

Northern Queens
  Details for Northern Queens Heat Advisory  +1 additional alert
Southern Queens
  Details for Southern Queens Heat Advisory  +1 additional alert


WXM80 ListenWXM80 Stop

You find our weather info also at:

UK Metoffice

WeatherCloud

Weather Underground

Northeastern Weather Network

AWEKAS

Citizen Weather Observer Program (CWOP)

HAMweather, WeatherForYou, PWS Weather


Weather Underground History page Text

Daily Summary for February 27, 2017 Units:  English    Metric   Both
« Previous Day
Next Day »
Daily Weekly Monthly Yearly Custom
  High: Low: Average:
Temperature: 54.9 °F 30.0 °F 42.6 °F
Dew Point: 37.7 °F 21.1 °F 29.6 °F
Humidity: 78 % 34 % 61 %
Wind Speed: 10.1 mph 0.0 mph 3.8 mph
Wind Gust: 16.1 mph - -
Wind:- - SW
Pressure: 30.40 in 30.24 in -
Precipitation: 0.00 in    
Historical Graphs
 
 
Tabular Data for February 27, 2017
Time Temperature Dew Point Pressure Wind Wind Speed Wind Gust Humidity Rainfall Rate (Hourly)
00:01 33.2 °F 22.0 °F 30.25 in SW 1.1 mph 2.3 mph 63 % 0.00 in
00:06 33.0 °F 21.8 °F 30.24 in SW 1.4 mph 3.5 mph 63 % 0.00 in
00:11 32.8 °F 22.0 °F 30.24 in SW 0.1 mph 2.3 mph 64 % 0.00 in
00:12 32.8 °F 22.0 °F 30.24 in SW 0.6 mph 1.2 mph 64 % 0.00 in
00:17 32.6 °F 21.8 °F 30.24 in Calm     64 % 0.00 in
00:22 32.6 °F 22.1 °F 30.24 in Calm     65 % 0.00 in
00:27 32.4 °F 21.9 °F 30.24 in SW 1.4 mph 2.0 mph 65 % 0.00 in
00:32 32.3 °F 21.8 °F 30.25 in SW 0.2 mph 1.2 mph 65 % 0.00 in
00:37 32.3 °F 21.8 °F 30.25 in Calm   2.3 mph 65 % 0.00 in
00:43 32.2 °F 21.7 °F 30.25 in SW 0.1 mph 1.2 mph 65 % 0.00 in
00:48 32.1 °F 22.0 °F 30.25 in SW 0.7 mph 2.0 mph 66 % 0.00 in
00:53 32.0 °F 21.9 °F 30.25 in SW 1.0 mph 3.5 mph 66 % 0.00 in
00:58 32.0 °F 22.3 °F 30.25 in SW 1.1 mph 5.8 mph 67 % 0.00 in
01:03 31.9 °F 22.2 °F 30.26 in SW 1.4 mph 3.5 mph 67 % 0.00 in
01:08 31.9 °F 22.2 °F 30.26 in SW 1.8 mph 3.5 mph 67 % 0.00 in
01:13 31.8 °F 22.1 °F 30.27 in WSW 1.1 mph 3.5 mph 67 % 0.00 in
01:18 31.8 °F 21.7 °F 30.26 in WSW 0.5 mph 3.5 mph 66 % 0.00 in
01:23 31.8 °F 21.7 °F 30.27 in SW 0.9 mph 4.6 mph 66 % 0.00 in
01:28 31.8 °F 21.7 °F 30.26 in SW 1.0 mph 1.2 mph 66 % 0.00 in
01:33 31.8 °F 21.7 °F 30.27 in SW 0.2 mph 2.3 mph 66 % 0.00 in
01:38 31.8 °F 21.7 °F 30.27 in Calm   2.0 mph 66 % 0.00 in
01:43 31.8 °F 21.7 °F 30.27 in SW 1.0 mph 5.0 mph 66 % 0.00 in
01:48 31.8 °F 21.7 °F 30.27 in SW 2.0 mph 5.0 mph 66 % 0.00 in
01:53 31.8 °F 21.4 °F 30.27 in Calm   2.0 mph 65 % 0.00 in
01:55 31.8 °F 21.4 °F 30.27 in WSW 0.1 mph 1.2 mph 65 % 0.00 in
01:58 31.8 °F 21.4 °F 30.27 in Calm   1.2 mph 65 % 0.00 in
02:03 31.8 °F 21.4 °F 30.27 in WSW 1.5 mph 3.5 mph 65 % 0.00 in
02:08 31.8 °F 21.4 °F 30.26 in Calm   1.2 mph 65 % 0.00 in
02:13 31.8 °F 21.4 °F 30.27 in WSW 0.1 mph 1.2 mph 65 % 0.00 in
02:18 31.7 °F 21.3 °F 30.27 in Calm     65 % 0.00 in
02:23 31.7 °F 21.3 °F 30.27 in Calm     65 % 0.00 in
02:28 31.6 °F 21.2 °F 30.27 in Calm     65 % 0.00 in
02:33 31.5 °F 21.4 °F 30.27 in Calm     66 % 0.00 in
02:38 31.4 °F 21.3 °F 30.27 in Calm     66 % 0.00 in
02:43 31.4 °F 21.3 °F 30.27 in Calm     66 % 0.00 in
02:48 31.2 °F 21.5 °F 30.27 in Calm     67 % 0.00 in
02:53 31.1 °F 21.4 °F 30.27 in Calm     67 % 0.00 in
02:58 31.0 °F 21.7 °F 30.27 in Calm   1.2 mph 68 % 0.00 in
03:03 30.8 °F 21.5 °F 30.27 in Calm     68 % 0.00 in
03:09 30.7 °F 21.4 °F 30.27 in Calm   1.2 mph 68 % 0.00 in
03:14 30.5 °F 21.2 °F 30.27 in WSW 0.6 mph 2.3 mph 68 % 0.00 in
03:19 30.5 °F 21.2 °F 30.27 in Calm   2.3 mph 68 % 0.00 in
03:24 30.3 °F 21.3 °F 30.28 in WSW 0.2 mph 1.2 mph 69 % 0.00 in
03:29 30.2 °F 21.2 °F 30.28 in WSW 1.5 mph 3.5 mph 69 % 0.00 in
03:34 30.1 °F 21.5 °F 30.28 in WSW 0.4 mph 2.3 mph 70 % 0.00 in
03:39 30.1 °F 21.5 °F 30.28 in SW 1.5 mph 4.0 mph 70 % 0.00 in
03:44 30.0 °F 21.1 °F 30.28 in SSW 1.3 mph 3.5 mph 69 % 0.00 in
03:49 30.1 °F 21.2 °F 30.29 in SSW 1.4 mph 3.5 mph 69 % 0.00 in
03:54 30.2 °F 21.2 °F 30.29 in SSW 1.7 mph 3.5 mph 69 % 0.00 in
03:59 30.3 °F 21.3 °F 30.29 in SW 2.9 mph 4.0 mph 69 % 0.00 in
04:04 30.5 °F 21.5 °F 30.29 in SW 1.1 mph 3.5 mph 69 % 0.00 in
04:09 30.6 °F 21.3 °F 30.29 in SSW 1.9 mph 5.8 mph 68 % 0.00 in
04:14 30.8 °F 21.5 °F 30.30 in SW 1.1 mph 5.8 mph 68 % 0.00 in
04:19 31.1 °F 21.8 °F 30.30 in SW 2.0 mph 8.1 mph 68 % 0.00 in
04:24 31.5 °F 22.1 °F 30.30 in SW 3.9 mph 6.9 mph 68 % 0.00 in
04:29 31.7 °F 22.0 °F 30.30 in SW 4.7 mph 6.9 mph 67 % 0.00 in
04:34 32.0 °F 21.9 °F 30.31 in SSW 5.1 mph 8.1 mph 66 % 0.00 in
04:39 32.3 °F 22.2 °F 30.30 in SSW 3.6 mph 5.8 mph 66 % 0.00 in
04:44 32.5 °F 22.4 °F 30.31 in SSW 4.2 mph 5.8 mph 66 % 0.00 in
04:49 32.6 °F 22.5 °F 30.31 in SSW 3.9 mph 5.8 mph 66 % 0.00 in
04:54 32.8 °F 22.7 °F 30.32 in WSW 4.0 mph 5.8 mph 66 % 0.00 in
04:59 32.9 °F 23.1 °F 30.32 in SSW 5.0 mph 8.1 mph 67 % 0.00 in
05:04 33.0 °F 23.2 °F 30.32 in SSW 4.1 mph 9.0 mph 67 % 0.00 in
05:09 33.1 °F 23.3 °F 30.32 in SW 2.4 mph 5.0 mph 67 % 0.00 in
05:15 33.1 °F 23.3 °F 30.32 in WSW 4.6 mph 9.2 mph 67 % 0.00 in
05:20 33.2 °F 23.4 °F 30.32 in WSW 4.0 mph 10.0 mph 67 % 0.00 in
05:25 33.3 °F 23.5 °F 30.32 in SW 3.5 mph 9.2 mph 67 % 0.00 in
05:30 33.4 °F 23.6 °F 30.33 in WSW 3.9 mph 5.0 mph 67 % 0.00 in
05:35 33.4 °F 24.0 °F 30.33 in SW 4.5 mph 6.9 mph 68 % 0.00 in
05:40 33.4 °F 24.0 °F 30.33 in SSW 4.0 mph 6.0 mph 68 % 0.00 in
05:45 33.5 °F 24.1 °F 30.33 in SW 4.1 mph 6.9 mph 68 % 0.00 in
05:50 33.5 °F 24.1 °F 30.33 in SW 3.9 mph 9.2 mph 68 % 0.00 in
05:55 33.6 °F 24.2 °F 30.33 in SW 4.4 mph 9.2 mph 68 % 0.00 in
06:00 33.6 °F 24.2 °F 30.33 in SW 7.3 mph 9.2 mph 68 % 0.00 in
06:05 33.6 °F 24.2 °F 30.34 in SW 3.4 mph 4.6 mph 68 % 0.00 in
06:10 33.6 °F 24.2 °F 30.34 in SSW 4.9 mph 10.4 mph 68 % 0.00 in
06:15 33.6 °F 24.2 °F 30.34 in WSW 3.7 mph 6.9 mph 68 % 0.00 in
06:20 33.6 °F 24.2 °F 30.34 in SW 5.8 mph 11.5 mph 68 % 0.00 in
06:25 33.6 °F 24.2 °F 30.34 in SW 4.3 mph 7.0 mph 68 % 0.00 in
06:30 33.6 °F 24.2 °F 30.34 in SW 5.6 mph 11.5 mph 68 % 0.00 in
06:35 33.6 °F 24.2 °F 30.34 in SW 4.5 mph 8.1 mph 68 % 0.00 in
06:40 33.6 °F 24.5 °F 30.34 in SSW 3.6 mph 6.9 mph 69 % 0.00 in
06:45 33.6 °F 24.5 °F 30.34 in SSW 5.3 mph 8.1 mph 69 % 0.00 in
06:50 33.6 °F 24.5 °F 30.34 in SW 5.3 mph 6.9 mph 69 % 0.00 in
06:55 33.6 °F 24.5 °F 30.33 in SW 3.8 mph 5.8 mph 69 % 0.00 in
07:00 33.8 °F 24.7 °F 30.34 in SW 2.8 mph 5.8 mph 69 % 0.00 in
07:05 33.9 °F 24.8 °F 30.34 in SSW 4.0 mph 6.9 mph 69 % 0.00 in
07:10 34.2 °F 25.1 °F 30.34 in SW 5.0 mph 6.9 mph 69 % 0.00 in
07:15 34.4 °F 24.9 °F 30.34 in SSW 3.4 mph 4.6 mph 68 % 0.00 in
07:21 34.7 °F 25.2 °F 30.34 in South 4.4 mph 8.1 mph 68 % 0.00 in
07:26 35.0 °F 25.1 °F 30.35 in SW 5.2 mph 8.1 mph 67 % 0.00 in
07:31 35.3 °F 25.1 °F 30.36 in WSW 5.3 mph 6.9 mph 66 % 0.00 in
07:36 35.6 °F 25.4 °F 30.36 in SW 4.2 mph 6.9 mph 66 % 0.00 in
07:41 35.9 °F 25.6 °F 30.36 in SSW 5.1 mph 6.9 mph 66 % 0.00 in
07:46 36.2 °F 25.9 °F 30.37 in SW 4.7 mph 8.1 mph 66 % 0.00 in
07:51 36.5 °F 26.2 °F 30.37 in SW 8.2 mph 13.0 mph 66 % 0.00 in
07:56 36.8 °F 26.5 °F 30.37 in West 4.9 mph 9.0 mph 66 % 0.00 in
08:01 37.2 °F 26.9 °F 30.37 in SSW 7.1 mph 9.2 mph 66 % 0.00 in
08:06 37.7 °F 27.0 °F 30.37 in SW 3.6 mph 10.0 mph 65 % 0.00 in
08:11 38.2 °F 27.8 °F 30.37 in SSW 5.9 mph 10.0 mph 66 % 0.00 in
08:16 38.7 °F 27.6 °F 30.38 in WSW 3.8 mph 8.1 mph 64 % 0.00 in
08:21 39.2 °F 28.0 °F 30.38 in SSW 7.5 mph 11.5 mph 64 % 0.00 in
08:26 39.6 °F 28.0 °F 30.38 in SSW 6.8 mph 10.4 mph 63 % 0.00 in
08:31 39.9 °F 27.9 °F 30.38 in WSW 6.4 mph 9.2 mph 62 % 0.00 in
08:36 40.2 °F 27.4 °F 30.38 in West 7.6 mph 13.8 mph 60 % 0.00 in
08:41 40.6 °F 28.2 °F 30.38 in SW 8.8 mph 11.5 mph 61 % 0.00 in
08:47 41.0 °F 28.2 °F 30.38 in SW 6.4 mph 10.4 mph 60 % 0.00 in
08:52 41.5 °F 28.2 °F 30.38 in WSW 6.5 mph 11.5 mph 59 % 0.00 in
08:57 42.0 °F 28.7 °F 30.38 in WNW 4.4 mph 6.9 mph 59 % 0.00 in
09:02 42.4 °F 28.7 °F 30.38 in SW 7.6 mph 11.5 mph 58 % 0.00 in
09:07 42.8 °F 28.2 °F 30.38 in SW 6.1 mph 13.8 mph 56 % 0.00 in
09:12 43.2 °F 28.5 °F 30.38 in SSW 7.1 mph 12.0 mph 56 % 0.00 in
09:17 43.6 °F 28.5 °F 30.38 in SW 4.5 mph 11.5 mph 55 % 0.00 in
09:22 44.0 °F 28.9 °F 30.38 in SW 2.5 mph 9.2 mph 55 % 0.00 in
09:27 44.5 °F 28.9 °F 30.38 in WSW 6.4 mph 11.0 mph 54 % 0.00 in
09:32 44.9 °F 28.8 °F 30.38 in SW 5.5 mph 7.0 mph 53 % 0.00 in
09:37 45.1 °F 29.0 °F 30.38 in SW 3.7 mph 6.9 mph 53 % 0.00 in
09:42 45.5 °F 28.4 °F 30.38 in SSW 6.7 mph 10.4 mph 51 % 0.00 in
09:47 45.8 °F 28.2 °F 30.38 in SSW 4.9 mph 8.1 mph 50 % 0.00 in
09:52 46.1 °F 29.0 °F 30.39 in SSW 5.4 mph 11.5 mph 51 % 0.00 in
09:57 46.4 °F 28.3 °F 30.40 in South 6.7 mph 11.5 mph 49 % 0.00 in
10:02 46.7 °F 28.0 °F 30.40 in South 7.2 mph 11.0 mph 48 % 0.00 in
10:07 46.9 °F 28.2 °F 30.39 in SW 6.4 mph 10.4 mph 48 % 0.00 in
10:12 47.2 °F 28.0 °F 30.39 in SSW 3.9 mph 12.7 mph 47 % 0.00 in
10:17 47.6 °F 28.9 °F 30.39 in WSW 3.3 mph 6.9 mph 48 % 0.00 in
10:22 47.9 °F 27.6 °F 30.40 in West 6.7 mph 15.0 mph 45 % 0.00 in
10:27 48.1 °F 27.7 °F 30.39 in WSW 7.0 mph 11.0 mph 45 % 0.00 in
10:33 48.4 °F 27.5 °F 30.39 in West 6.0 mph 9.2 mph 44 % 0.00 in
10:38 48.7 °F 28.3 °F 30.39 in West 1.1 mph 3.5 mph 45 % 0.00 in
10:43 49.2 °F 28.7 °F 30.39 in SW 4.5 mph 8.1 mph 45 % 0.00 in
10:48 49.9 °F 29.4 °F 30.39 in WSW 2.5 mph 9.2 mph 45 % 0.00 in
10:49 50.0 °F 28.9 °F 30.38 in West 6.5 mph 11.0 mph 44 % 0.00 in
10:54 50.5 °F 28.2 °F 30.39 in West 7.8 mph 10.0 mph 42 % 0.00 in
10:59 50.9 °F 28.6 °F 30.38 in WSW 3.0 mph 6.9 mph 42 % 0.00 in
11:04 51.1 °F 28.2 °F 30.38 in SW 7.1 mph 11.5 mph 41 % 0.00 in
11:09 51.2 °F 28.9 °F 30.39 in SW 7.9 mph 13.0 mph 42 % 0.00 in
11:14 51.2 °F 28.9 °F 30.38 in SSW 5.3 mph 11.5 mph 42 % 0.00 in
11:19 51.3 °F 29.0 °F 30.38 in SSW 5.6 mph 10.4 mph 42 % 0.00 in
11:24 51.5 °F 28.6 °F 30.39 in SSW 3.8 mph 8.1 mph 41 % 0.00 in
11:29 51.8 °F 29.4 °F 30.39 in SW 4.5 mph 9.0 mph 42 % 0.00 in
11:34 52.1 °F 30.3 °F 30.38 in SW 5.1 mph 6.9 mph 43 % 0.00 in
11:39 52.5 °F 28.8 °F 30.38 in SSW 8.3 mph 12.7 mph 40 % 0.00 in
11:44 52.7 °F 29.0 °F 30.38 in SSW 5.8 mph 7.0 mph 40 % 0.00 in
11:49 52.8 °F 29.7 °F 30.38 in SSW 2.8 mph 9.0 mph 41 % 0.00 in
11:54 52.7 °F 29.0 °F 30.38 in SSW 7.9 mph 12.7 mph 40 % 0.00 in
11:58 52.6 °F 28.9 °F 30.38 in WSW 3.3 mph 6.9 mph 40 % 0.00 in
12:03 52.6 °F 28.9 °F 30.38 in South 8.3 mph 11.5 mph 40 % 0.00 in
12:08 52.5 °F 28.2 °F 30.37 in SW 8.4 mph 12.0 mph 39 % 0.00 in
12:13 52.6 °F 28.3 °F 30.37 in WSW 5.1 mph 10.4 mph 39 % 0.00 in
12:18 53.0 °F 28.0 °F 30.37 in SW 7.4 mph 13.8 mph 38 % 0.00 in
12:23 53.1 °F 27.5 °F 30.36 in NW 7.3 mph 12.7 mph 37 % 0.00 in
12:28 53.2 °F 28.2 °F 30.36 in WSW 7.8 mph 12.7 mph 38 % 0.00 in
12:33 53.5 °F 29.1 °F 30.36 in WSW 2.9 mph 10.0 mph 39 % 0.00 in
12:38 53.5 °F 29.1 °F 30.35 in SW 3.0 mph 12.0 mph 39 % 0.00 in
12:43 53.7 °F 28.7 °F 30.35 in SSW 6.0 mph 10.0 mph 38 % 0.00 in
12:48 53.8 °F 28.8 °F 30.35 in SW 7.0 mph 10.0 mph 38 % 0.00 in
12:53 53.8 °F 28.8 °F 30.35 in WSW 8.1 mph 11.5 mph 38 % 0.00 in
12:58 53.9 °F 29.5 °F 30.35 in SSW 6.2 mph 7.0 mph 39 % 0.00 in
13:03 54.2 °F 29.1 °F 30.35 in SSW 2.5 mph 6.9 mph 38 % 0.00 in
13:08 54.5 °F 29.4 °F 30.34 in SW 3.4 mph 8.1 mph 38 % 0.00 in
13:13 54.6 °F 29.5 °F 30.34 in SW 5.0 mph 12.7 mph 38 % 0.00 in
13:18 54.7 °F 28.9 °F 30.34 in SW 5.5 mph 12.7 mph 37 % 0.00 in
13:23 54.4 °F 28.0 °F 30.34 in NW 4.7 mph 6.9 mph 36 % 0.00 in
13:28 54.6 °F 29.5 °F 30.35 in South 3.5 mph 7.0 mph 38 % 0.00 in
13:33 54.9 °F 27.7 °F 30.34 in West 5.0 mph 8.1 mph 35 % 0.00 in
13:38 54.9 °F 27.0 °F 30.34 in South 7.2 mph 12.7 mph 34 % 0.00 in
13:43 54.8 °F 27.6 °F 30.34 in SW 6.4 mph 12.7 mph 35 % 0.00 in
13:49 54.7 °F 27.6 °F 30.34 in SW 4.4 mph 11.0 mph 35 % 0.00 in
13:54 54.6 °F 27.5 °F 30.34 in SSW 5.7 mph 12.7 mph 35 % 0.00 in
13:59 54.4 °F 28.6 °F 30.33 in South 4.0 mph 6.9 mph 37 % 0.00 in
14:04 54.2 °F 27.8 °F 30.33 in WSW 6.1 mph 9.2 mph 36 % 0.00 in
14:09 54.1 °F 27.7 °F 30.33 in WSW 2.9 mph 7.0 mph 36 % 0.00 in
14:14 53.9 °F 28.2 °F 30.33 in South 4.4 mph 6.9 mph 37 % 0.00 in
14:19 53.8 °F 28.1 °F 30.33 in SW 7.2 mph 11.5 mph 37 % 0.00 in
14:24 53.3 °F 29.6 °F 30.33 in SSW 6.9 mph 10.4 mph 40 % 0.00 in
14:29 53.0 °F 29.3 °F 30.33 in SSW 8.2 mph 10.4 mph 40 % 0.00 in
14:34 52.8 °F 32.0 °F 30.33 in SE 4.9 mph 6.9 mph 45 % 0.00 in
14:39 52.4 °F 32.2 °F 30.33 in SSW 4.2 mph 9.2 mph 46 % 0.00 in
14:44 52.1 °F 33.0 °F 30.33 in SSE 6.9 mph 8.1 mph 48 % 0.00 in
14:49 51.9 °F 31.7 °F 30.33 in South 9.6 mph 16.1 mph 46 % 0.00 in
14:54 51.5 °F 31.9 °F 30.33 in SW 5.9 mph 11.5 mph 47 % 0.00 in
14:59 51.3 °F 31.2 °F 30.34 in South 7.6 mph 11.5 mph 46 % 0.00 in
15:04 51.1 °F 31.6 °F 30.33 in SSW 7.5 mph 11.5 mph 47 % 0.00 in
15:09 51.0 °F 30.9 °F 30.34 in SSW 3.7 mph 8.1 mph 46 % 0.00 in
15:14 50.8 °F 31.3 °F 30.34 in SSW 6.1 mph 13.0 mph 47 % 0.00 in
15:15 50.8 °F 31.3 °F 30.34 in South 7.9 mph 12.0 mph 47 % 0.00 in
15:20 50.8 °F 31.8 °F 30.34 in SSW 5.0 mph 8.1 mph 48 % 0.00 in
15:25 50.6 °F 31.6 °F 30.33 in SW 10.1 mph 16.1 mph 48 % 0.00 in
15:30 50.5 °F 32.0 °F 30.33 in SSW 4.2 mph 10.4 mph 49 % 0.00 in
15:35 50.5 °F 32.5 °F 30.33 in SSE 4.6 mph 8.1 mph 50 % 0.00 in
15:40 50.4 °F 32.9 °F 30.33 in SW 5.5 mph 9.2 mph 51 % 0.00 in
15:45 50.3 °F 33.3 °F 30.33 in SW 6.0 mph 10.0 mph 52 % 0.00 in
15:51 50.3 °F 33.8 °F 30.33 in SSE 4.0 mph 6.0 mph 53 % 0.00 in
15:56 50.2 °F 33.7 °F 30.33 in SSW 7.0 mph 11.5 mph 53 % 0.00 in
16:01 50.1 °F 34.1 °F 30.33 in South 8.5 mph 12.7 mph 54 % 0.00 in
16:06 49.9 °F 34.8 °F 30.33 in South 6.4 mph 11.5 mph 56 % 0.00 in
16:11 49.5 °F 34.9 °F 30.33 in SSW 5.1 mph 10.4 mph 57 % 0.00 in
16:16 49.3 °F 35.1 °F 30.33 in South 4.9 mph 12.0 mph 58 % 0.00 in
16:21 49.1 °F 35.4 °F 30.33 in South 7.0 mph 9.2 mph 59 % 0.00 in
16:26 49.0 °F 35.7 °F 30.33 in SSW 6.0 mph 12.7 mph 60 % 0.00 in
16:31 48.8 °F 35.9 °F 30.33 in South 6.7 mph 10.4 mph 61 % 0.00 in
16:36 48.7 °F 36.3 °F 30.33 in South 5.4 mph 10.4 mph 62 % 0.00 in
16:41 48.6 °F 36.2 °F 30.33 in South 4.3 mph 9.2 mph 62 % 0.00 in
16:46 48.5 °F 36.5 °F 30.33 in SW 7.0 mph 11.5 mph 63 % 0.00 in
16:51 48.4 °F 36.8 °F 30.33 in South 6.8 mph 10.4 mph 64 % 0.00 in
16:56 48.3 °F 37.1 °F 30.34 in SSW 5.7 mph 11.5 mph 65 % 0.00 in
17:01 48.2 °F 37.0 °F 30.34 in SSW 3.2 mph 8.1 mph 65 % 0.00 in
17:06 48.0 °F 37.2 °F 30.34 in SW 5.5 mph 8.1 mph 66 % 0.00 in
17:11 47.8 °F 37.0 °F 30.34 in South 3.7 mph 7.0 mph 66 % 0.00 in
17:16 47.6 °F 36.8 °F 30.34 in South 5.6 mph 9.2 mph 66 % 0.00 in
17:21 47.4 °F 37.0 °F 30.35 in SSW 4.4 mph 7.0 mph 67 % 0.00 in
17:26 47.3 °F 36.9 °F 30.34 in South 4.9 mph 9.2 mph 67 % 0.00 in
17:31 47.1 °F 36.7 °F 30.35 in SSW 4.0 mph 9.2 mph 67 % 0.00 in
17:37 47.0 °F 37.0 °F 30.34 in SSW 3.6 mph 8.1 mph 68 % 0.00 in
17:42 46.8 °F 36.8 °F 30.34 in SSW 5.3 mph 10.4 mph 68 % 0.00 in
17:47 46.7 °F 37.1 °F 30.34 in South 3.9 mph 6.9 mph 69 % 0.00 in
17:52 46.6 °F 37.0 °F 30.34 in SSW 4.6 mph 6.9 mph 69 % 0.00 in
17:57 46.5 °F 36.9 °F 30.35 in South 3.5 mph 4.6 mph 69 % 0.00 in
18:02 46.3 °F 37.0 °F 30.35 in SSW 5.0 mph 7.0 mph 70 % 0.00 in
18:07 46.2 °F 37.3 °F 30.35 in SSW 3.5 mph 10.4 mph 71 % 0.00 in
18:12 46.1 °F 37.2 °F 30.35 in South 5.4 mph 8.0 mph 71 % 0.00 in
18:17 46.0 °F 37.5 °F 30.35 in SSW 3.0 mph 6.9 mph 72 % 0.00 in
18:22 45.9 °F 37.4 °F 30.36 in South 4.0 mph 6.0 mph 72 % 0.00 in
18:27 45.8 °F 37.6 °F 30.36 in WSW 2.6 mph 6.9 mph 73 % 0.00 in
18:32 45.7 °F 37.5 °F 30.36 in SSW 3.5 mph 5.8 mph 73 % 0.00 in
18:37 45.7 °F 37.5 °F 30.35 in SW 2.9 mph 4.6 mph 73 % 0.00 in
18:42 45.5 °F 37.7 °F 30.36 in SSW 3.2 mph 4.6 mph 74 % 0.00 in
18:47 45.5 °F 37.7 °F 30.36 in South 2.5 mph 4.6 mph 74 % 0.00 in
18:52 45.4 °F 37.6 °F 30.36 in SW 2.9 mph 6.9 mph 74 % 0.00 in
18:57 45.3 °F 37.5 °F 30.36 in SW 4.0 mph 5.8 mph 74 % 0.00 in
19:02 45.2 °F 37.7 °F 30.36 in South 3.6 mph 5.8 mph 75 % 0.00 in
19:07 45.2 °F 37.7 °F 30.36 in SW 2.9 mph 6.0 mph 75 % 0.00 in
19:12 45.2 °F 37.7 °F 30.36 in SW 4.0 mph 7.0 mph 75 % 0.00 in
19:17 45.2 °F 37.7 °F 30.36 in SSW 3.1 mph 8.1 mph 75 % 0.00 in
19:22 45.3 °F 37.5 °F 30.37 in WSW 2.3 mph 5.8 mph 74 % 0.00 in
19:27 45.4 °F 37.6 °F 30.37 in SSW 2.8 mph 5.0 mph 74 % 0.00 in
19:33 45.4 °F 37.6 °F 30.37 in SW 4.4 mph 6.9 mph 74 % 0.00 in
19:38 45.4 °F 37.6 °F 30.37 in SW 4.0 mph 5.8 mph 74 % 0.00 in
19:43 45.4 °F 37.6 °F 30.36 in SSW 4.3 mph 6.9 mph 74 % 0.00 in
19:48 45.4 °F 37.6 °F 30.36 in SW 3.4 mph 4.6 mph 74 % 0.00 in
19:53 45.5 °F 37.7 °F 30.36 in WSW 2.3 mph 4.0 mph 74 % 0.00 in
19:58 45.5 °F 37.3 °F 30.37 in SSW 4.5 mph 6.9 mph 73 % 0.00 in
20:03 45.6 °F 37.1 °F 30.37 in SSW 4.3 mph 8.1 mph 72 % 0.00 in
20:08 45.8 °F 37.3 °F 30.36 in SSW 4.3 mph 8.1 mph 72 % 0.00 in
20:13 45.9 °F 37.0 °F 30.36 in SSW 1.2 mph 3.5 mph 71 % 0.00 in
20:18 46.0 °F 36.8 °F 30.36 in SSW 4.1 mph 6.9 mph 70 % 0.00 in
20:23 46.1 °F 36.8 °F 30.36 in SW 3.0 mph 8.0 mph 70 % 0.00 in
20:28 46.1 °F 36.9 °F 30.36 in SW 3.0 mph 6.0 mph 70 % 0.00 in
20:33 46.2 °F 36.6 °F 30.36 in SW 2.4 mph 5.8 mph 69 % 0.00 in
20:38 46.2 °F 36.6 °F 30.36 in SW 2.0 mph 7.0 mph 69 % 0.00 in
20:43 46.1 °F 36.5 °F 30.36 in SW 2.0 mph 6.0 mph 69 % 0.00 in
20:48 46.1 °F 36.5 °F 30.36 in SW 3.0 mph 6.0 mph 69 % 0.00 in
20:53 46.1 °F 36.5 °F 30.35 in SW 2.0 mph 7.0 mph 69 % 0.00 in
20:58 46.1 °F 36.5 °F 30.35 in SW 3.1 mph 5.8 mph 69 % 0.00 in
21:03 46.0 °F 36.4 °F 30.35 in SSW 3.0 mph 8.0 mph 69 % 0.00 in
21:08 46.0 °F 36.4 °F 30.36 in SSW 5.0 mph 7.0 mph 69 % 0.00 in
21:13 46.0 °F 36.4 °F 30.35 in SSW 4.5 mph 6.9 mph 69 % 0.00 in
21:18 46.0 °F 36.4 °F 30.36 in SW 3.0 mph 6.0 mph 69 % 0.00 in
21:23 46.0 °F 36.8 °F 30.36 in SW 2.0 mph 7.0 mph 70 % 0.00 in
21:28 45.9 °F 36.7 °F 30.36 in SSW 2.0 mph 7.0 mph 70 % 0.00 in
21:33 45.8 °F 36.6 °F 30.36 in SW 3.1 mph 5.8 mph 70 % 0.00 in
21:38 45.7 °F 36.8 °F 30.36 in SW 2.0 mph 4.0 mph 71 % 0.00 in
21:43 45.6 °F 36.7 °F 30.36 in SW 3.0 mph 6.0 mph 71 % 0.00 in
21:48 45.5 °F 36.6 °F 30.37 in SW 2.0 mph 6.0 mph 71 % 0.00 in
21:53 45.3 °F 36.8 °F 30.37 in SSW 3.0 mph 8.0 mph 72 % 0.00 in
21:58 45.2 °F 36.7 °F 30.36 in South 3.1 mph 4.6 mph 72 % 0.00 in
22:03 45.1 °F 37.0 °F 30.36 in SW 1.8 mph 5.8 mph 73 % 0.00 in
22:08 45.1 °F 37.0 °F 30.37 in SSW 2.0 mph 3.5 mph 73 % 0.00 in
22:13 45.0 °F 36.9 °F 30.36 in SW 1.4 mph 5.8 mph 73 % 0.00 in
22:18 44.9 °F 37.1 °F 30.37 in SSW 2.1 mph 4.6 mph 74 % 0.00 in
22:23 44.8 °F 37.0 °F 30.37 in SW 1.9 mph 3.5 mph 74 % 0.00 in
22:28 44.7 °F 37.3 °F 30.37 in SW 1.1 mph 2.3 mph 75 % 0.00 in
22:33 44.5 °F 37.1 °F 30.37 in SSW 1.9 mph 4.0 mph 75 % 0.00 in
22:38 44.4 °F 37.3 °F 30.37 in SW 3.3 mph 5.8 mph 76 % 0.00 in
22:43 44.3 °F 37.2 °F 30.37 in SSW 2.6 mph 3.5 mph 76 % 0.00 in
22:48 44.2 °F 37.4 °F 30.36 in SW 2.3 mph 3.5 mph 77 % 0.00 in
22:53 44.2 °F 37.4 °F 30.36 in SSW 1.5 mph 3.5 mph 77 % 0.00 in
22:58 44.2 °F 37.4 °F 30.36 in Calm   3.5 mph 77 % 0.00 in
23:03 44.2 °F 37.4 °F 30.36 in WSW 1.1 mph 3.5 mph 77 % 0.00 in
23:09 44.1 °F 37.3 °F 30.36 in SW 2.3 mph 4.6 mph 77 % 0.00 in
23:11 44.1 °F 37.3 °F 30.36 in WSW 3.0 mph 4.6 mph 77 % 0.00 in
23:16 44.1 °F 37.7 °F 30.36 in WSW 1.3 mph 4.6 mph 78 % 0.00 in
23:21 44.0 °F 37.6 °F 30.36 in Calm   3.5 mph 78 % 0.00 in
23:26 44.0 °F 37.6 °F 30.36 in SSW 1.2 mph 3.5 mph 78 % 0.00 in
23:31 44.0 °F 37.6 °F 30.37 in WSW 1.9 mph 3.5 mph 78 % 0.00 in
23:36 44.0 °F 37.6 °F 30.37 in WSW 1.1 mph 3.5 mph 78 % 0.00 in
23:41 44.0 °F 37.6 °F 30.37 in WSW 0.8 mph 2.3 mph 78 % 0.00 in
23:46 43.9 °F 37.5 °F 30.37 in SW 3.1 mph 5.8 mph 78 % 0.00 in
23:51 43.8 °F 37.4 °F 30.36 in Calm   1.2 mph 78 % 0.00 in
23:56 43.8 °F 37.4 °F 30.36 in Calm   1.2 mph 78 % 0.00 in
Crab Meadow Weather
Compliments of Weather Underground - 3 mb

Script developed by  Jim McMurry - jmcmurry@mwt.net Adapted for the template by  Wim van der Kuil - Leuven-Template.eu

Weather Terms: Tornado Watch - Conditions are favorable for the development of severe thunderstorms and tornadoes in and close to the watch area. These watches are issued for large areas by the Storm Prediction Center in Norman, Oklahoma, and are usually valid for four to six hours.